Weather History for KART - November, 2011

Change the Weather History Date:

Saturday, November 12, 2011

  Actual Average Record
Temperature  
Mean Temperature 44 °F 40 °F  
Max Temperature 52 °F 48 °F 70 °F (1964)
Min Temperature 36 °F 31 °F 15 °F (1987)
Degree Days  
Heating Degree Days 21 25  
Month to date heating degree days 239 282  
Since 1 July heating degree days 833 1078  
Cooling Degree Days 0 0  
Month to date cooling degree days 0 0  
Year to date cooling degree days 513 362  
Moisture  
Dew Point 32 °F    
Average Humidity 60    
Maximum Humidity 71    
Minimum Humidity 49    
Precipitation  
Precipitation T in 0.12 in 1.08 in (1963)
Month to date precipitation 0.13 1.46  
Year to date precipitation 36.15 30.63  
Sea Level Pressure  
Sea Level Pressure 29.89 in    
Wind  
Wind Speed 10 mph (SSW)    
Max Wind Speed 23 mph    
Max Gust Speed 30 mph    
Visibility 10 miles    
Events Rain    
T = Trace of Precipitation, MM = Missing Value Source: NWS Daily Summary

Daily Weather History Graph

Daily Weather History Graph

Search for Another Location

Airport or City:

Trip Planner

Search our weather history database for the weather conditions in past years. The results will help you decide how hot, cold, wet, or windy it might be!

Date:

Astronomy

Nov. 12, 2011 Rise Set
Actual Time 6:54 AM EST 4:41 PM EST
Civil Twilight 6:23 AM EST 5:12 PM EST
Nautical Twilight 5:49 AM EST 5:46 PM EST
Astronomical Twilight 5:15 AM EST 6:20 PM EST
Moon 5:51 PM EST (11/12) 8:38 AM EST (11/12)
Length of Visible Light 10h 48m
Length of Day
9h 46m
Full, 97% of the Moon is Illuminated
Nov 12
Full
Nov 18
Last Quarter
Nov 25
New
Dec 2
First Quarter
Dec 10
Full

Hourly Weather History & Observations

Time (EST) Temp. Windchill Dew Point Humidity Pressure Visibility Wind Dir Wind Speed Gust Speed Precip Events Conditions
12:56 AM 41.0 °F 35.2 °F 30.0 °F 65% 29.88 in 10.0 mi West 9.2 mph - N/A   Overcast
1:56 AM 42.1 °F 36.1 °F 30.9 °F 65% 29.88 in 10.0 mi West 10.4 mph - N/A   Overcast
2:56 AM 41.0 °F 36.4 °F 30.9 °F 67% 29.88 in 10.0 mi WSW 6.9 mph - N/A   Overcast
3:56 AM 41.0 °F 34.3 °F 32.0 °F 70% 29.88 in 10.0 mi South 11.5 mph 17.3 mph 0.00 in Rain Light Rain
4:56 AM 42.1 °F 35.2 °F 32.0 °F 67% 29.88 in 10.0 mi SSW 12.7 mph 24.2 mph 0.00 in   Overcast
5:56 AM 39.0 °F 32.8 °F 30.9 °F 73% 29.87 in 10.0 mi South 9.2 mph 16.1 mph N/A   Partly Cloudy
6:56 AM 39.0 °F 33.4 °F 28.9 °F 67% 29.86 in 10.0 mi South 8.1 mph - N/A   Scattered Clouds
7:56 AM 39.2 °F 32.0 °F 28.4 °F 65% 29.86 in 10.0 mi South 11.5 mph 19.6 mph N/A   Partly Cloudy
8:56 AM 42.1 °F 34.9 °F 28.0 °F 58% 29.86 in 10.0 mi South 13.8 mph 24.2 mph N/A   Mostly Cloudy
9:56 AM 43.0 °F 35.7 °F 28.0 °F 56% 29.86 in 10.0 mi SSW 15.0 mph 24.2 mph N/A   Scattered Clouds
10:56 AM 46.0 °F 39.6 °F 28.9 °F 51% 29.86 in 10.0 mi SSW 15.0 mph 21.9 mph N/A   Clear
11:56 AM 48.9 °F - 30.9 °F 50% 29.86 in 10.0 mi SSW 12.7 mph 25.3 mph N/A   Clear
12:56 PM 50.0 °F - 32.0 °F 50% 29.87 in 10.0 mi SW 19.6 mph 29.9 mph N/A   Partly Cloudy
1:56 PM 48.9 °F - 32.0 °F 52% 29.87 in 10.0 mi SSW 13.8 mph 23.0 mph N/A   Overcast
2:56 PM 50.0 °F - 34.0 °F 54% 29.88 in 10.0 mi SW 10.4 mph 21.9 mph N/A   Mostly Cloudy
3:56 PM 50.0 °F - 33.8 °F 54% 29.89 in 10.0 mi SW 12.7 mph - N/A   Clear
4:56 PM 48.0 °F - 36.0 °F 63% 29.91 in 10.0 mi SSW 8.1 mph - N/A   Clear
5:56 PM 46.4 °F 43.5 °F 37.4 °F 71% 29.93 in 10.0 mi South 5.8 mph - N/A   Clear
6:56 PM 46.0 °F 42.5 °F 36.0 °F 68% 29.95 in 10.0 mi SSE 6.9 mph - N/A   Clear
7:56 PM 45.0 °F 43.5 °F 33.1 °F 63% 29.94 in 10.0 mi SSE 3.5 mph - N/A   Clear
8:56 PM 45.0 °F - 33.1 °F 63% 29.95 in 10.0 mi Calm Calm - N/A   Clear
9:56 PM 46.4 °F 42.9 °F 33.8 °F 62% 29.93 in 10.0 mi South 6.9 mph - N/A   Clear
10:56 PM 50.0 °F - 32.0 °F 50% 29.93 in 10.0 mi South 8.1 mph 17.3 mph N/A   Clear
11:56 PM 52.0 °F - 33.1 °F 49% 29.93 in 10.0 mi South 9.2 mph - N/A   Clear